GW2492 Weather Reports


Display with metric or nautical units.
time (UTC)temp
F
wind
direction
speed
MPH
gust
MPH
rain 1hr
in
rain 24hr
in
rain mn
in
humidity
%
barometer
mb
20260904073052 83 160 14.0 21.0 0.00 0.00 0.00 61 1012.9
20260904071622 84 179 13.0 19.0 0.00 0.00 0.00 60 1012.9
20260904070104 84 168 13.0 20.0 0.00 0.00 0.00 60 1013.0
20260904064603 84 153 14.0 21.0 0.00 0.00 0.00 59 1012.9
20260904063056 84 161 13.0 19.0 0.00 0.00 0.00 59 1013.0
20260904061549 84 164 15.0 22.0 0.00 0.00 0.00 58 1013.0
20260904060049 85 154 16.0 25.0 0.00 0.00 0.00 57 1013.0
20260904054600 86 144 17.0 28.0 0.00 0.00 0.00 55 1012.8
20260904053103 86 162 16.0 23.0 0.00 0.00 0.00 53 1012.8
20260904051548 87 157 15.0 22.0 0.00 0.00 0.00 51 1012.7
20260904050053 88 130 15.0 23.0 0.00 0.00 0.00 50 1012.7
20260904044608 88 159 15.0 21.0 0.00 0.00 0.00 49 1012.6
20260904043101 88 159 13.0 20.0 0.00 0.00 0.00 49 1012.5
20260904041554 88 140 13.0 19.0 0.00 0.00 0.00 49 1012.5
20260904040050 88 159 12.0 17.0 0.00 0.00 0.00 49 1012.6
20260904034553 89 164 11.0 19.0 0.00 0.00 0.00 49 1012.5
20260904033057 89 166 10.0 14.0 0.00 0.00 0.00 48 1012.6
20260904031604 89 157 11.0 16.0 0.00 0.00 0.00 48 1012.4
20260904030051 90 159 11.0 16.0 0.00 0.00 0.00 48 1012.1
20260904024600 89 155 8.0 12.0 0.00 0.00 0.00 48 1011.9
20260904023058 90 160 11.0 18.0 0.00 0.00 0.00 48 1011.8
20260904021554 90 153 14.0 19.0 0.00 0.00 0.00 47 1011.7
20260904020050 91 151 15.0 23.0 0.00 0.00 0.00 46 1011.3
20260904014549 92 152 16.0 21.0 0.00 0.00 0.00 44 1011.3
20260904013045 93 122 12.0 27.0 0.00 0.00 0.00 43 1011.3
20260904011558 95 109 14.0 25.0 0.00 0.00 0.00 40 1011.1
20260904010054 96 117 14.0 27.0 0.00 0.00 0.00 38 1010.7
20260904004548 99 126 12.0 19.0 0.00 0.00 0.00 34 1010.6
20260904003058 100 111 8.0 13.0 0.00 0.00 0.00 33 1010.5
20260904001557 100 126 8.0 12.0 0.00 0.00 0.00 32 1010.4
20260904000051 101 142 4.0 9.0 0.00 0.00 0.00 31 1010.6
20260903234551 101 98 5.0 10.0 0.00 0.00 0.00 31 1010.4
20260903233047 101 117 3.0 9.0 0.00 0.00 0.00 30 1010.3
20260903231550 101 117 7.0 13.0 0.00 0.00 0.00 30 1010.4
20260903230103 102 152 7.0 12.0 0.00 0.00 0.00 30 1010.4
20260903224555 102 0 6.0 10.0 0.00 0.00 0.00 29 1010.2
20260903223049 102 338 2.0 9.0 0.00 0.00 0.00 30 1010.1
20260903221602 101 66 5.0 12.0 0.00 0.00 0.00 30 1010.4
20260903220058 102 118 6.0 14.0 0.00 0.00 0.00 30 1010.4
20260903214603 102 155 7.0 13.0 0.00 0.00 0.00 30 1010.5
20260903213054 102 104 2.0 9.0 0.00 0.00 0.00 30 1010.7
20260903211558 102 328 1.0 8.0 0.00 0.00 0.00 30 1011.0
20260903204555 101 0 1.0 11.0 0.00 0.00 0.00 31 1011.4
20260903203053 101 106 6.0 16.0 0.00 0.00 0.00 31 1011.7
20260903201559 101 142 1.0 9.0 0.00 0.00 0.00 32 1011.8
20260903200057 101 156 8.0 12.0 0.00 0.00 0.00 31 1012.1
20260903194555 100 84 3.0 7.0 0.00 0.00 0.00 32 1012.2
20260903193054 98 220 3.0 13.0 0.00 0.00 0.00 34 1012.4
20260903191545 99 132 5.0 11.0 0.00 0.00 0.00 33 1012.7
20260903190056 100 247 6.0 12.0 0.00 0.00 0.00 32 1012.9
20260903184555 100 148 7.0 12.0 0.00 0.00 0.00 34 1013.1
20260903183050 100 279 3.0 9.0 0.00 0.00 0.00 34 1013.5
20260903181556 99 247 1.0 11.0 0.00 0.00 0.00 36 1013.7
20260903180114 98 184 5.0 11.0 0.00 0.00 0.00 37 1013.8
20260903174550 97 246 6.0 14.0 0.00 0.00 0.00 38 1014.2
20260903173050 97 301 3.0 13.0 0.00 0.00 0.00 41 1014.2
20260903171550 96 230 8.0 18.0 0.00 0.00 0.00 43 1014.4
20260903170057 95 240 11.0 18.0 0.00 0.00 0.00 46 1014.6
20260903164602 94 213 12.0 17.0 0.00 0.00 0.00 47 1014.6
20260903163048 93 219 10.0 18.0 0.00 0.00 0.00 50 1014.6
20260903161556 92 232 9.0 16.0 0.00 0.00 0.00 52 1014.5
20260903160059 91 197 11.0 19.0 0.00 0.00 0.00 53 1014.5
20260903154559 90 225 9.0 17.0 0.00 0.00 0.00 55 1014.7
20260903153103 88 231 15.0 19.0 0.00 0.00 0.00 57 1014.6
20260903151557 87 226 10.0 18.0 0.00 0.00 0.00 61 1014.5
20260903150057 86 206 11.0 18.0 0.00 0.00 0.00 63 1014.5
20260903144554 85 239 14.0 20.0 0.00 0.00 0.00 65 1014.5
20260903143056 84 215 14.0 21.0 0.00 0.00 0.00 67 1014.4
20260903141557 82 219 12.0 20.0 0.00 0.00 0.00 69 1014.5
20260903140051 82 202 11.0 16.0 0.00 0.00 0.00 70 1014.5
20260903134559 81 234 11.0 16.0 0.00 0.00 0.00 72 1014.5
20260903133059 80 229 8.0 12.0 0.00 0.00 0.00 73 1014.6
20260903131558 79 234 5.0 8.0 0.00 0.00 0.00 74 1014.5
20260903130110 78 238 4.0 10.0 0.00 0.00 0.00 74 1014.3
20260903124549 78 224 6.0 12.0 0.00 0.00 0.00 74 1014.2
20260903123053 78 210 8.0 15.0 0.00 0.00 0.00 73 1013.9
20260903121556 78 214 10.0 17.0 0.00 0.00 0.00 72 1013.8
20260903120057 79 191 11.0 17.0 0.00 0.00 0.00 71 1013.7
20260903114600 79 208 11.0 15.0 0.00 0.00 0.00 70 1013.7
20260903113059 79 215 9.0 14.0 0.00 0.00 0.00 69 1013.7
20260903111615 79 203 11.0 15.0 0.00 0.00 0.00 68 1013.7
20260903110113 80 200 11.0 17.0 0.00 0.00 0.00 66 1013.7
20260903104553 80 193 10.0 18.0 0.00 0.00 0.00 65 1013.5
20260903103047 80 194 10.0 18.0 0.00 0.00 0.00 63 1013.6
20260903101605 81 200 12.0 17.0 0.00 0.00 0.00 62 1013.5
20260903100052 81 195 10.0 13.0 0.00 0.00 0.00 61 1013.5
20260903094601 81 191 7.0 11.0 0.00 0.00 0.00 60 1013.5
20260903093056 82 190 9.0 14.0 0.00 0.00 0.00 58 1013.6
20260903091550 83 177 10.0 14.0 0.00 0.00 0.00 57 1013.6
20260903090059 83 181 10.0 14.0 0.00 0.00 0.00 55 1013.6
20260903084559 82 182 8.0 12.0 0.00 0.00 0.00 55 1013.6
20260903083051 81 178 4.0 7.0 0.00 0.00 0.00 56 1013.8
20260903081550 80 185 3.0 7.0 0.00 0.00 0.00 56 1013.9
20260903080049 80 171 6.0 9.0 0.00 0.00 0.00 57 1013.9
20260903074606 81 174 6.0 11.0 0.00 0.00 0.00 57 1014.1